Погода в Омутнинске

Россия / Кировская область     58°39′50″N   52°10′37″E
темп.,
°C
ветер,
м/с
пор.,
м/с
влажн.,
%
обл.,
%
осадки,
мм/ч
давл.,
гПа
погр.,
м
8 мая, сб
сб800:00+10ююз3978100 0.1 1013354
03:00+8сз3886100 0.1 1015482
06:00+8зсз2495100 2.2 1016409
09:00+10ссв127689 3.4 1018692
12:00+14всв125399 0.1 10171516
15:00+15вюв325019 0.1 10171594
18:00+13вюв24653 0.0 1016365
21:00+8юв23875 0.0 101752
9 мая, вс
вс900:00+7юв24965 0.0 101769
03:00+7юв28963 0.0 1016162
06:00+11ююв397953 0.0 1016331
09:00+17ююв5855100 0.0 10151073
12:00+20ююв574255 0.0 10152099
15:00+21ю573816 0.0 10142384
18:00+18ююв3852100 0.0 1015327
21:00+14ююв41362100 0.0 1015327
10 мая, пн
пн1000:00+13ююв4146654 0.0 1015385
03:00+14ю41364100 0.0 1016566
06:00+13ю3875100 0.0 1018324
09:00+12ю31093100 1.4 1019575
12:00+9з3795100 3.9 1022467
15:00+9зсз2695100 7.9 1024491
18:00+7ссз4791100 2.4 1027691
21:00+5с29930 2.4 1028350
11 мая, вт
вт1100:00+3ссз23960 0.0 103086
03:00+3ссз12955 0.0 103120
06:00+7ссз128137 0.0 1032192
09:00+12ссз235334 0.0 1032935
12:00+15сз233845 0.0 10321466
15:00+16сз23376 0.0 10311417
18:00+14з11565 0.0 103113
21:00+10зюз2270100 0.0 103212
12 мая, ср
ср1200:00+9зюз2276100 0.0 103229
03:00+8зюз248067 0.0 103276
06:00+12з246917 0.0 1033201
09:00+17з24555 0.0 1031776
12:00+21з344610 0.0 10301393
15:00+22зсз34435 0.0 10291530
18:00+19зсз226026 0.0 102922
21:00+14з227653 0.0 102912